[[{"header":{"parameterUnit":"m.s-1","parameterCategory":1,"la1":30.2991,"la2":30.254,"lo1":-89.0895,"lo2":-89.0444,"dy":0.0017,"dx":0.0017,"nx":28,"ny":28,"refTime":"2024-03-13T03:00:00:Z","depth":0,"parameterNumber":2,"parameterNumberName":"U-component_of_WINDS"},"data":[0,0,0,0,0,0,0,0,0,0,0,0,0,0,0,0,0,0,0,0,0,0,0,0,0,0,0,0,0,0,0,0,0,0,0,0,0,0,0,0,0,0,0,0,0,0,0,0,0,0,0,0,0,0,0,0,0,0,-3.6414,-3.6414,0,-3.6501,-3.6502,-3.6503,-3.6478,-3.6476,-3.6474,-3.6473,-3.6561,-3.6565,-3.6569,0,0,0,0,0,0,0,0,0,0,0,0,0,-3.6225,-3.6228,-3.6413,-3.6415,-3.6416,-3.6501,-3.6502,-3.6503,-3.6478,-3.6476,-3.6474,-3.6472,-3.6559,-3.6564,-3.6569,0,0,0,0,0,0,0,0,0,0,0,0,0,-3.6309,-3.623,-3.6413,-3.6414,-3.6414,-3.6501,-3.6502,-3.6503,-3.6479,-3.6476,-3.6473,-3.6471,-3.6558,-3.6564,-3.657,-3.666,0,0,-3.6588,-3.6591,0,0,0,0,0,0,0,0,-3.6304,-3.6316,-3.6412,-3.6414,-3.6415,-3.6476,-3.6468,-3.6556,-3.6479,-3.6454,-3.6473,-3.647,-3.6535,-3.6542,-3.6565,-3.6664,-3.6668,-3.6589,-3.6592,-3.6595,-3.6597,0,0,0,0,0,0,0,-3.6298,-3.6312,-3.6448,-3.6414,-3.6415,-3.6409,-3.6418,-3.6484,-3.6508,-3.6456,-3.6455,-3.6465,-3.6535,-3.6559,-3.6566,-3.667,-3.6588,-3.6594,-3.6597,-3.66,-3.6849,-3.6852,0,0,0,0,0,0,-3.6292,-3.6307,-3.6445,-3.6451,-3.6352,-3.6415,-3.6425,-3.6459,-3.6508,-3.6512,-3.6468,-3.6464,-3.655,-3.6559,-3.6569,-3.6678,-3.6595,-3.66,-3.6604,-3.6846,-3.6849,-3.6853,0,0,0,0,0,0,-3.6288,-3.6304,-3.6442,-3.6379,-3.6396,-3.6421,-3.6459,-3.6462,-3.6486,-3.6516,-3.652,-3.6488,-3.6548,-3.6561,-3.6638,-3.6681,-3.6603,-3.6609,-3.6842,-3.6847,-3.6851,-3.6897,0,0,0,0,0,0,-3.6282,-3.6303,-3.6338,-3.638,-3.6399,-3.6509,-3.6462,-3.6466,-3.6497,-3.6493,-3.6536,-3.6541,-3.6547,-3.6629,-3.6644,-3.6688,-3.6613,-3.6838,-3.6844,-3.685,-3.6892,-3.6903,-3.6912,0,0,0,0,0,-3.6276,-3.6347,-3.6339,-3.6356,-3.6443,-3.6511,-3.6523,-3.6529,-3.65,-3.6535,-3.6555,-3.6539,-3.6675,-3.6637,-3.6654,-3.67,-3.6836,-3.6843,-3.6849,-3.6887,-3.6901,-3.6912,0,0,0,0,0,0,-3.6308,-3.6352,-3.6344,-3.6431,-3.6468,-3.6507,-3.6551,-3.6543,-3.6588,-3.6582,-3.6587,-3.6597,-3.6676,-3.6696,-3.6654,-3.6791,-3.6751,-3.6761,-3.6774,-3.6787,-3.6797,-3.679,-3.6618,0,0,0,0,0,-3.6326,-3.6378,-3.6414,-3.6487,-3.6506,-3.6526,-3.6556,-3.6557,-3.6595,-3.6611,-3.6636,-3.6673,-3.6724,-3.6757,-3.6805,-3.6896,-3.6905,-3.6936,-3.6946,-3.6954,-3.6962,-3.7011,-3.7026,-3.6875,-3.6875,-3.6875,0,0,-3.6361,-3.6392,-3.6425,-3.6494,-3.6522,-3.6576,-3.6539,-3.6597,-3.6637,-3.6619,-3.6693,-3.6714,-3.6756,-3.684,-3.6878,-3.6859,-3.7006,-3.6963,-3.6969,-3.6973,-3.702,-3.7034,-3.7047,-3.688,-3.6879,-3.6878,0,0,-3.6454,-3.6483,-3.6547,-3.6577,-3.6621,-3.6634,-3.665,-3.6691,-3.6704,-3.6779,-3.6767,-3.6815,-3.6903,-3.6933,-3.696,-3.7067,-3.7054,-3.7083,-3.7134,-3.7182,-3.7194,-3.7204,-3.7241,-3.7255,-3.7091,-3.7091,-3.7092,0,-3.6493,-3.6574,-3.6581,-3.6641,-3.6671,-3.666,-3.6724,-3.6753,-3.6811,-3.6832,-3.681,-3.6921,-3.6948,-3.7039,-3.7065,-3.7088,-3.7105,-3.7076,-3.7192,-3.7202,-3.7212,-3.7248,-3.7262,-3.7094,-3.7094,-3.7094,-3.7094,0,-3.6619,-3.6675,-3.6722,-3.6778,-3.6815,-3.6877,-3.6893,-3.6929,-3.6929,-3.6944,-3.7021,-3.7054,-3.7109,-3.7132,-3.7131,-3.7223,-3.721,-3.719,-3.715,-3.723,-3.7263,-3.7277,-3.7099,-3.7098,-3.7097,-3.7096,0,0,-3.6731,-3.6793,-3.681,-3.6836,-3.6885,-3.6928,-3.699,-3.7045,-3.7075,-3.7117,-3.7168,-3.7244,-3.7226,-3.7257,-3.726,-3.7303,-3.7385,-3.7278,-3.7279,-3.7295,-3.7487,-3.75,-3.7515,-3.7378,-3.738,-3.7382,-3.7483,0,-3.6827,-3.6936,-3.6945,-3.7043,-3.7095,-3.7086,-3.714,-3.7176,-3.7193,-3.724,-3.7258,-3.7311,-3.7285,-3.7303,-3.7345,-3.7366,-3.7423,-3.7359,-3.7425,-3.7427,-3.7412,-3.7533,-3.7547,-3.7639,-3.7496,-3.7498,-3.75,0,-3.6953,-3.6998,-3.7101,-3.7144,-3.7166,-3.7214,-3.7265,-3.7311,-3.7352,-3.7361,-3.7397,-3.7395,-3.7459,-3.7418,-3.7506,-3.7462,-3.749,-3.7505,-3.7509,-3.7513,-3.7466,-3.7539,-3.7669,-3.7683,-3.7521,-3.7519,-3.7518,0,-3.7023,-3.711,-3.7183,-3.7206,-3.7257,-3.7292,-3.7315,-3.7353,-3.7386,-3.7431,-3.7452,-3.7504,-3.7532,-3.7573,-3.7585,-3.7555,-3.7673,-3.7633,-3.7681,-3.7681,-3.7704,-3.7702,-3.7839,-3.7726,-3.7726,-3.7725,-3.7725,0,-3.7127,-3.719,-3.7215,-3.726,-3.733,-3.7341,-3.7411,-3.7432,-3.7467,-3.7516,-3.7512,-3.7557,-3.7572,-3.7621,-3.7631,-3.7702,-3.7715,-3.7724,-3.7725,-3.7723,-3.7722,-3.7739,-3.7732,-3.7729,-3.7728,-3.7728,-3.7727,0,-3.7216,-3.7235,-3.7314,-3.7358,-3.737,-3.742,-3.7457,-3.75,-3.7518,-3.7579,-3.7594,-3.7621,-3.7678,-3.7696,-3.7764,-3.7771,-3.7853,-3.785,-3.7839,-3.7839,-3.7886,-3.788,-3.8037,-3.8058,-3.7933,-3.7934,-3.7935,0,-3.728,-3.7329,-3.7378,-3.741,-3.7435,-3.7488,-3.7521,-3.7535,-3.757,-3.7621,-3.7658,-3.7715,-3.776,-3.7852,-3.7877,-3.793,-3.7927,-3.7978,-3.7934,-3.793,-3.7926,-3.7922,-3.7926,-3.7985,-3.7987,-3.7988,-3.7989,0,-3.7392,-3.7399,-3.7448,-3.7501,-3.7541,-3.7583,-3.7623,-3.765,-3.767,-3.771,-3.7768,-3.7804,-3.7874,-3.793,-3.7984,-3.8008,-3.8001,-3.8003,-3.8017,-3.8013,-3.8004,-3.8008,-3.786,-3.7998,-3.7997,-3.7997,-3.7996,-3.7996,-3.7469,-3.7512,-3.7553,-3.7608,-3.764,-3.7678,-3.7721,-3.7744,-3.7793,-3.7852,-3.7857,-3.792,-3.7962,-3.8033,-3.806,-3.811,-3.8095,-3.8115,-3.812,-3.8124,-3.8127,-3.7999,-3.812,-3.812,-3.812,-3.8119,-3.8119,0,-3.7579,-3.7605,-3.7656,-3.7713,-3.7756,-3.7748,-3.7793,-3.7829,-3.7885,-3.7924,-3.797,-3.8038,-3.8092,-3.8123,-3.8178,-3.8212,-3.821,-3.8226,-3.8222,-3.8227,-3.8138,-3.812,-3.8226,-3.8226,-3.8226,-3.8226,-3.8226,-3.8226,-3.7641,-3.7712,-3.7725,-3.7813,-3.784,-3.7901,-3.7928,-3.7963,-3.7994,-3.807,-3.8116,-3.8136,-3.8172,-3.823,-3.828,-3.8288,-3.8307,-3.8324,-3.833,-3.8245,-3.8234,-3.8223,-3.8206,-3.8329,-3.8329,-3.8415,-3.8416,-3.8416]},{"header":{"parameterUnit":"m.s-1","parameterCategory":1,"la1":30.2991,"la2":30.254,"lo1":-89.0895,"lo2":-89.0444,"dy":0.0017,"dx":0.0017,"nx":28,"ny":28,"refTime":"2024-03-13T03:00:00:Z","depth":0,"parameterNumber":3,"parameterNumberName":"V-component_of_WINDS"},"data":[0,0,0,0,0,0,0,0,0,0,0,0,0,0,0,0,0,0,0,0,0,0,0,0,0,0,0,0,0,0,0,0,0,0,0,0,0,0,0,0,0,0,0,0,0,0,0,0,0,0,0,0,0,0,0,0,0,0,0.6157,0.6157,0,0.6184,0.6184,0.6185,0.6202,0.6202,0.6202,0.6202,0.6229,0.623,0.623,0,0,0,0,0,0,0,0,0,0,0,0,0,0.612,0.612,0.6157,0.6157,0.6157,0.6184,0.6184,0.6185,0.6202,0.6202,0.6202,0.6202,0.6229,0.623,0.623,0,0,0,0,0,0,0,0,0,0,0,0,0,0.614,0.612,0.6156,0.6169,0.617,0.6184,0.6184,0.6185,0.6202,0.6202,0.6202,0.6202,0.6229,0.623,0.6231,0.6233,0,0,0.6233,0.6234,0,0,0,0,0,0,0,0,0.6139,0.6142,0.6167,0.6168,0.617,0.619,0.6181,0.6201,0.6202,0.619,0.6202,0.6202,0.6216,0.6218,0.6223,0.6235,0.6236,0.6233,0.6234,0.6234,0.6235,0,0,0,0,0,0,0,0.6138,0.614,0.6167,0.6167,0.6169,0.6174,0.6177,0.6185,0.6202,0.6191,0.6192,0.6195,0.6217,0.6222,0.6223,0.6236,0.6233,0.6234,0.6235,0.6235,0.6254,0.6254,0,0,0,0,0,0,0.6134,0.6139,0.6167,0.6168,0.6155,0.6174,0.6178,0.6183,0.6202,0.6205,0.6195,0.6196,0.622,0.6222,0.6224,0.623,0.6234,0.6235,0.6236,0.6254,0.6254,0.6254,0,0,0,0,0,0,0.6133,0.6136,0.6165,0.6154,0.6158,0.6175,0.6181,0.6184,0.6189,0.6205,0.6208,0.6197,0.622,0.6223,0.6232,0.6231,0.6236,0.6237,0.6254,0.6254,0.6254,0.6241,0,0,0,0,0,0,0.6132,0.6136,0.6137,0.6154,0.6159,0.6172,0.6181,0.6184,0.619,0.6192,0.6208,0.621,0.6221,0.623,0.6232,0.6233,0.6237,0.6254,0.6254,0.6254,0.6242,0.6241,0.624,0,0,0,0,0,0.6131,0.6131,0.6137,0.614,0.616,0.6172,0.6174,0.6186,0.619,0.6192,0.6202,0.621,0.6231,0.6231,0.6234,0.6234,0.6254,0.6254,0.6254,0.6242,0.6241,0.624,0,0,0,0,0,0,0.6113,0.6134,0.614,0.6146,0.6157,0.6175,0.6176,0.6184,0.6194,0.6195,0.621,0.6213,0.622,0.6228,0.6227,0.6239,0.6244,0.6244,0.6234,0.6232,0.6232,0.6229,0.6238,0,0,0,0,0,0.611,0.6117,0.6135,0.6139,0.6144,0.6159,0.6165,0.6174,0.6185,0.619,0.6201,0.6212,0.6222,0.6228,0.6237,0.6243,0.6248,0.6245,0.6244,0.6243,0.6243,0.6249,0.6249,0.6254,0.6254,0.6254,0,0,0.6103,0.6115,0.6119,0.6136,0.6145,0.6153,0.6163,0.6171,0.6177,0.6191,0.62,0.6209,0.6223,0.623,0.6234,0.6237,0.6243,0.6243,0.6242,0.6243,0.6249,0.6248,0.6248,0.6254,0.6254,0.6254,0,0,0.6095,0.6104,0.6109,0.6119,0.6134,0.6145,0.6146,0.6163,0.617,0.618,0.6191,0.6199,0.6214,0.6224,0.6231,0.623,0.6237,0.6233,0.6227,0.6233,0.6232,0.6232,0.6232,0.6232,0.6233,0.6233,0.6233,0,0.6084,0.6097,0.6111,0.6119,0.6126,0.6141,0.6146,0.6155,0.6172,0.6177,0.618,0.6202,0.6212,0.6223,0.6223,0.6228,0.623,0.623,0.6231,0.6231,0.6231,0.6232,0.6232,0.6232,0.6232,0.6232,0.6232,0,0.6084,0.6093,0.6095,0.6112,0.612,0.6127,0.6143,0.6149,0.6158,0.6168,0.6179,0.6192,0.6205,0.6209,0.6216,0.6222,0.6223,0.6228,0.6233,0.623,0.6231,0.6231,0.6231,0.6231,0.6231,0.6232,0,0,0.6063,0.609,0.6091,0.61,0.6119,0.6126,0.6134,0.6148,0.6154,0.6166,0.6173,0.6187,0.6193,0.6201,0.6211,0.6216,0.6215,0.6221,0.6221,0.622,0.6223,0.6219,0.6219,0.6221,0.6221,0.6221,0.6223,0,0.6058,0.6074,0.6088,0.6098,0.6108,0.6123,0.613,0.6143,0.6153,0.6163,0.6175,0.6185,0.6191,0.6197,0.6202,0.6214,0.6216,0.6214,0.6229,0.6229,0.6225,0.622,0.6215,0.6216,0.6223,0.6223,0.6223,0,0.6054,0.6067,0.6079,0.6099,0.6103,0.6109,0.6124,0.6133,0.6149,0.6156,0.6166,0.6177,0.6187,0.6192,0.6207,0.6205,0.6212,0.6219,0.6219,0.6221,0.6226,0.6222,0.6216,0.6216,0.6224,0.6224,0.6224,0,0.6039,0.6059,0.6069,0.6076,0.61,0.6104,0.6114,0.613,0.6138,0.6151,0.6157,0.6171,0.6178,0.6189,0.6204,0.6205,0.6218,0.6223,0.6225,0.6224,0.6226,0.6226,0.6222,0.623,0.623,0.623,0.623,0,0.6032,0.6039,0.6063,0.6069,0.6078,0.6095,0.6103,0.6114,0.6128,0.6138,0.6151,0.616,0.6178,0.6189,0.62,0.6212,0.6215,0.6222,0.6225,0.6221,0.622,0.6225,0.6226,0.623,0.623,0.623,0.623,0,0.6017,0.6033,0.6045,0.6067,0.6073,0.6078,0.6097,0.6104,0.6117,0.6128,0.6132,0.6151,0.6165,0.6181,0.6199,0.6207,0.6218,0.6222,0.6213,0.6214,0.6216,0.6216,0.6215,0.6216,0.6223,0.6223,0.6223,0,0.6011,0.6017,0.604,0.6048,0.6058,0.6069,0.6078,0.6096,0.6105,0.6124,0.6129,0.6144,0.6157,0.6178,0.6194,0.6209,0.6214,0.6213,0.6216,0.6212,0.6215,0.6214,0.6216,0.6212,0.6211,0.6211,0.6211,0,0.6,0.6009,0.6021,0.6037,0.6048,0.6061,0.6075,0.6081,0.6101,0.6111,0.6125,0.6136,0.6156,0.6171,0.6188,0.6199,0.6209,0.621,0.6212,0.6207,0.6202,0.6206,0.6211,0.621,0.621,0.621,0.621,0.621,0.599,0.5997,0.6015,0.6029,0.6042,0.6055,0.6063,0.6077,0.609,0.6108,0.6118,0.6133,0.615,0.6175,0.6185,0.6198,0.6201,0.6202,0.6203,0.6203,0.6203,0.6201,0.6201,0.6201,0.6201,0.6201,0.6201,0,0.598,0.5993,0.6006,0.6026,0.6038,0.6047,0.6064,0.6073,0.6086,0.6102,0.6115,0.6133,0.6148,0.6166,0.6183,0.6189,0.6195,0.6193,0.6193,0.6195,0.6198,0.6196,0.6189,0.6189,0.6189,0.6189,0.6189,0.6189,0.5977,0.5989,0.6,0.6019,0.6032,0.6048,0.6057,0.6069,0.6082,0.6102,0.6115,0.6127,0.6144,0.6163,0.6178,0.6183,0.6188,0.6186,0.6192,0.6194,0.6195,0.6196,0.6194,0.6187,0.6187,0.6188,0.6188,0.6188]}]]